Погода в Богоявлении

Россия / Нижегородская область     55°49′29″N   43°59′16″E
темп.,
°C
ветер,
м/с
пор.,
м/с
влажн.,
%
обл.,
%
осадки,
мм/ч
давл.,
гПа
погр.,
м
11 апреля, вс
вс1100:000ю119897 0.0 102740
03:00−2с119839 0.0 102813
06:00−3в119831 0.0 102914
09:00+5вюв11725 0.0 1030210
12:00+9ссв1256100 0.0 1030581
15:00+9в2158100 0.0 1032508
18:00+6всв1180100 0.0 103219
21:00+3вюв2286100 0.0 103417
12 апреля, пн
пн1200:00+2всв2287100 0.0 103523
03:00+2всв358665 0.0 103675
06:00+2всв31085100 0.0 1036208
09:00+6в51271100 0.0 1036444
12:00+7в51162100 0.0 1035475
15:00+9в61070100 0.0 1034470
18:00+7вюв41190100 0.0 1033377
21:00+5вюв41097100 0.0 1033229
13 апреля, вт
вт1300:00+6вюв3109683 0.0 1032186
03:00+6юв389370 0.0 1031138
06:00+6ююв389154 0.0 1031132
09:00+12ююв497094 0.0 1030307
12:00+16ю5746100 0.0 1029868
15:00+18ю473682 0.0 10281466
18:00+14ю335642 0.0 102742
21:00+10ююв377057 0.0 1027105
14 апреля, ср
ср1400:00+9ю387241 0.0 1027123
03:00+8ю36765 0.0 102787
06:00+7ю35755 0.0 102780
09:00+14ю46535 0.0 1026294
12:00+18ю46384 0.0 1025985
15:00+19ю4535100 0.0 10231460
18:00+15ююв365350 0.0 1022137
21:00+11ююв226465 0.0 102231
15 апреля, чт
чт1500:00+9ю226767 0.0 102217
03:00+8ю227087 0.0 102116
06:00+7ю2371100 0.0 102042
09:00+12ю2457100 0.0 1019238
12:00+16ююз2345100 0.0 1018706
15:00+18юз123886 0.0 10161419
18:00+15ссз114968 0.0 101511
21:00+11св116133 0.0 101510